1488024000.67,4422,7.94,72850.8,-9.73,-36.19,-34.47,0,*64
1488024001.89,4423,8.0,72850.0,-9.75,-36.97,-36.13,0,*66
1488024003.12,4424,8.0,72850.8,-9.75,-37.93,-37.33,0,*67
1488024004.35,4425,8.0,72842.0,-9.75,-36.97,-36.25,0,*65
1488024005.59,4426,8.0,72846.3,-9.75,-38.23,-36.91,0,*68
1488024006.81,4427,8.0,72846.5,-9.75,-36.73,-34.35,0,*6E
1488024008.06,4428,8.0,72850.0,-9.75,-35.65,-32.63,0,*60
1488024009.31,4429,8.0,72848.8,-9.73,-34.65,-31.29,0,*6B
1488024010.54,4430,8.0,72846.8,-9.67,-34.31,-31.01,0,*6D
1488024011.76,4431,8.0,72846.3,-9.67,-34.47,-31.57,0,*6E
1488024012.99,4432,8.0,72842.0,-9.63,-33.43,-31.17,0,*6E
1488024014.21,4433,8.0,72846.8,-9.63,-32.07,-31.33,0,*68
1488024015.44,4434,8.0,72852.8,-9.59,-30.73,-31.29,0,*6C
1488024016.69,4435,8.0,72848.3,-9.59,-30.17,-31.95,0,*68
1488024017.91,4436,8.0,72842.0,-9.55,-31.23,-33.95,0,*63
1488024019.13,4437,8.0,72846.5,-9.51,-30.61,-33.83,0,*66
1488024020.35,4438,8.0,72854.8,-9.49,-31.67,-34.59,0,*67
1488024021.58,4439,8.0,72850.5,-9.45,-32.91,-34.71,0,*6A
1488024022.84,4440,8.0,72848.3,-9.41,-35.23,-35.71,0,*6F
1488024024.13,4441,8.0,72850.3,-9.41,-35.95,-34.65,0,*67
1488024025.43,4442,8.0,72846.3,-9.37,-37.21,-34.95,0,*67
1488024026.64,4443,8.0,72840.0,-9.35,-36.73,-33.83,0,*62
1488024027.93,4444,8.0,72842.8,-9.33,-36.25,-33.49,0,*66
1488024029.16,4445,8.0,72842.5,-9.31,-35.95,-33.95,0,*6C
1488024030.42,4446,8.0,72842.8,-9.29,-35.83,-34.41,0,*6F
1488024031.65,4447,8.0,72844.8,-9.23,-35.71,-34.65,0,*6F
1488024032.93,4448,8.0,72848.0,-9.21,-35.53,-35.07,0,*67
1488024034.14,4449,8.0,72848.3,-9.19,-35.29,-34.77,0,*66
1488024035.41,4450,8.0,72850.8,-9.17,-36.67,-35.83,0,*63
1488024036.69,4451,8.0,72846.3,-9.15,-36.91,-35.65,0,*61
1488024037.92,4452,8.0,72846.5,-9.13,-37.39,-35.71,0,*62
1488024039.16,4453,8.0,72846.5,-9.11,-37.45,-35.77,0,*6C
1488024040.4,4454,8.0,72840.8,-9.13,-37.99,-36.31,0,*69
1488024041.67,4455,8.0,72842.3,-9.11,-37.99,-36.67,0,*69
1488024042.93,4456,8.0,72846.0,-9.09,-37.93,-36.61,0,*6F
1488024044.19,4457,8.0,72842.0,-9.07,-38.29,-36.97,0,*67
1488024045.41,4458,8.0,72842.5,-9.07,-38.35,-36.85,0,*66
1488024046.64,4459,8.0,72846.5,-9.03,-39.09,-37.27,0,*64
1488024047.88,4460,8.0,72842.8,-9.03,-38.85,-36.73,0,*6B
1488024049.11,4461,8.0,72844.5,-9.03,-40.03,-37.33,0,*6E
1488024050.4,4462,8.0,72846.8,-9.03,-41.67,-38.67,0,*60
1488024051.68,4463,8.0,72842.5,-9.03,-41.81,-38.11,0,*68
1488024052.95,4464,8.0,72842.3,-9.05,-40.41,-35.83,0,*62
1488024054.16,4465,8.0,72842.0,-9.05,-41.41,-35.77,0,*69
1488024055.43,4466,7.94,72840.3,-9.05,-41.23,-34.65,0,*6C
1488024056.72,4467,8.0,72844.5,-9.03,-41.23,-33.43,0,*68
1488024057.97,4468,8.0,72844.8,-9.03,-40.47,-31.85,0,*6C
1488024059.25,4469,8.0,72846.0,-9.03,-40.21,-30.95,0,*6D
1488024060.48,4470,8.0,72842.5,-8.99,-40.53,-30.83,0,*65
1488024061.69,4471,8.0,72838.8,-8.97,-39.91,-29.95,0,*65
1488024062.91,4472,8.0,72844.0,-8.99,-38.43,-28.97,0,*65
1488024064.17,4473,8.0,72848.3,-8.95,-37.51,-28.53,0,*6C
1488024065.43,4474,8.0,72846.3,-8.95,-38.79,-30.45,0,*60
1488024066.66,4475,8.0,72840.5,-8.95,-38.35,-30.67,0,*69
1488024067.93,4476,8.0,72842.3,-8.95,-35.53,-29.17,0,*68
1488024069.19,4477,8.0,72842.0,-8.95,-33.83,-28.21,0,*66
1488024070.46,4478,8.0,72836.3,-8.95,-33.61,-28.75,0,*64
1488024071.71,4479,8.0,72834.5,-8.95,-33.15,-29.01,0,*64
1488024072.97,4480,8.0,72826.3,-8.93,-33.43,-29.35,0,*60
1488024074.17,4481,8.0,72834.0,-8.93,-32.23,-28.53,0,*67
1488024075.39,4482,8.0,72838.5,-8.93,-32.23,-28.75,0,*60
1488024076.6,4483,8.0,72832.5,-8.89,-33.55,-29.83,0,*62
1488024077.83,4484,8.0,72836.8,-8.89,-34.83,-31.01,0,*6A
1488024079.05,4485,8.0,72834.3,-8.89,-35.41,-31.33,0,*65
1488024080.33,4486,8.0,72832.3,-8.91,-35.95,-31.39,0,*6C
1488024081.59,4487,8.0,72828.8,-8.91,-35.77,-30.89,0,*6B
1488024082.85,4488,8.0,72832.3,-8.91,-35.29,-30.51,0,*6A
1488024084.08,4489,8.0,72828.0,-8.93,-34.01,-28.69,0,*60
1488024085.32,4490,8.0,72830.0,-8.93,-33.09,-27.67,0,*66
1488024086.56,4491,8.0,72832.0,-8.93,-32.75,-27.29,0,*67
1488024087.81,4492,8.0,72830.0,-8.91,-33.27,-27.67,0,*6A
1488024089.06,4493,8.0,72832.0,-8.91,-31.45,-26.17,0,*6B
1488024090.27,4494,8.0,72830.8,-8.89,-31.05,-26.07,0,*60
1488024091.48,4495,7.94,72832.5,-8.85,-29.95,-25.39,0,*63
1488024092.72,4496,8.0,72836.3,-8.85,-29.79,-25.55,0,*68
1488024093.98,4497,8.0,72838.3,-8.85,-28.91,-25.55,0,*6E
1488024095.21,4498,8.0,72842.8,-8.83,-27.39,-24.97,0,*65
1488024096.44,4499,8.0,72844.3,-8.83,-26.71,-25.19,0,*6E
1488024097.65,4500,8.0,72844.5,-8.75,-26.07,-25.61,0,*68
1488024098.91,4501,8.0,72842.8,-8.73,-26.23,-26.77,0,*6D
1488024100.16,4502,8.0,72842.0,-8.73,-25.39,-26.71,0,*60
1488024101.36,4503,8.0,72846.8,-8.71,-24.93,-26.87,0,*6B
1488024102.56,4504,8.0,72846.3,-8.67,-25.19,-27.93,0,*6C
1488024103.81,4505,8.0,72854.3,-8.65,-25.49,-28.79,0,*61
1488024105.03,4506,8.0,72850.3,-8.59,-25.09,-28.91,0,*6F
1488024106.28,4507,8.0,72850.0,-8.59,-24.87,-30.17,0,*6E
1488024107.51,4508,8.0,72856.0,-8.55,-26.93,-32.57,0,*6C
1488024108.76,4509,8.0,72862.0,-8.51,-27.99,-33.95,0,*6D
1488024110.01,4510,8.0,72856.5,-8.51,-29.07,-35.23,0,*67
1488024111.24,4511,8.0,72852.3,-8.51,-31.33,-37.33,0,*6B
1488024112.47,4512,8.0,72852.5,-8.49,-33.03,-38.23,0,*6E
1488024113.73,4513,8.0,72858.8,-8.51,-36.25,-40.47,0,*6A
1488024114.96,4514,8.0,72852.8,-8.55,-37.09,-39.91,0,*63
1488024116.15,4515,8.0,72852.3,-8.59,-37.57,-39.35,0,*6B
1488024117.37,4516,8.0,72848.0,-8.61,-38.97,-40.03,0,*6B
1488024118.57,4517,8.0,72842.3,-8.63,-39.35,-39.35,0,*6A
1488024119.77,4518,8.0,72846.5,-8.63,-39.65,-38.97,0,*69
1488024121.0,4519,8.0,72846.8,-8.65,-41.03,-40.03,0,*63
1488024122.2,4520,8.0,72846.8,-8.67,-40.47,-38.85,0,*6B
1488024123.41,4521,8.0,72848.5,-8.71,-42.75,-40.35,0,*6A
1488024124.64,4522,8.0,72844.5,-8.73,-41.73,-38.43,0,*60
1488024125.85,4523,8.0,72842.5,-8.71,-41.17,-37.03,0,*6A
1488024127.08,4524,8.0,72846.8,-8.73,-41.73,-37.03,0,*6D
1488024128.29,4525,8.0,72848.3,-8.75,-41.73,-36.55,0,*68
1488024129.49,4526,8.0,72836.5,-8.75,-41.73,-36.19,0,*63
1488024130.79,4527,8.0,72832.5,-8.77,-41.81,-35.95,0,*6A
1488024132.04,4528,8.0,72834.3,-8.77,-40.29,-34.71,0,*6D
1488024133.29,4529,8.0,72836.5,-8.77,-39.91,-34.47,0,*64
1488024134.57,4530,8.0,72840.8,-8.81,-42.31,-36.79,0,*6C
1488024135.8,4531,8.0,72842.8,-8.83,-42.25,-36.61,0,*63
1488024137.04,4532,8.0,72842.5,-8.85,-41.55,-36.01,0,*64
1488024138.3,4533,8.0,72840.8,-8.91,-41.49,-35.95,0,*63
1488024139.53,4534,8.0,72846.0,-8.95,-41.49,-36.01,0,*6E
1488024140.74,4535,8.0,72842.0,-8.97,-39.35,-34.13,0,*68
1488024142.0,4536,8.0,72846.3,-8.99,-37.21,-32.39,0,*60
1488024143.25,4537,8.0,72844.3,-8.99,-37.57,-32.85,0,*67
1488024144.52,4538,8.0,72848.3,-8.99,-34.95,-30.33,0,*6A
1488024145.77,4539,8.0,72854.3,-8.99,-34.31,-29.07,0,*6A
1488024147.04,4540,8.0,72852.3,-8.99,-35.35,-29.13,0,*64
1488024148.29,4541,8.0,72848.3,-8.99,-34.95,-28.37,0,*69
1488024149.57,4542,8.0,72852.5,-8.99,-35.95,-29.39,0,*64
1488024150.8,4543,8.0,72850.8,-9.03,-36.19,-29.45,0,*6B
1488024152.03,4544,8.0,72852.8,-9.05,-36.01,-29.17,0,*64
1488024153.29,4545,8.0,72852.3,-9.07,-35.71,-28.91,0,*6C
1488024154.53,4546,8.0,72850.5,-9.09,-34.13,-27.35,0,*65
1488024155.74,4547,8.0,72850.0,-9.09,-34.25,-27.13,0,*65
1488024157.02,4548,8.0,72844.5,-9.11,-32.45,-25.45,0,*62
1488024158.27,4549,8.0,72848.8,-9.09,-29.73,-23.43,0,*65
1488024159.52,4550,8.0,72850.8,-9.07,-29.07,-23.85,0,*6A
1488024160.76,4551,8.0,72848.8,-9.05,-29.17,-24.47,0,*61
1488024161.99,4552,8.0,72850.5,-9.05,-29.01,-24.51,0,*62
1488024163.22,4553,8.0,72852.0,-9.05,-28.15,-23.65,0,*67
1488024164.47,4554,8.0,72854.5,-9.03,-27.13,-22.73,0,*69
1488024165.74,4555,8.0,72852.8,-9.03,-26.77,-22.83,0,*64
1488024167.01,4556,8.0,72850.8,-8.99,-27.19,-23.33,0,*66
1488024168.22,4557,8.0,72852.3,-8.97,-26.61,-22.63,0,*63
1488024169.46,4558,8.0,72848.8,-8.97,-26.03,-22.17,0,*6B
1488024170.71,4559,8.0,72856.0,-8.95,-24.87,-21.39,0,*69
1488024171.95,4560,8.0,72854.8,-8.93,-24.57,-21.53,0,*64
1488024173.2,4561,8.0,72852.0,-8.95,-26.03,-23.29,0,*6F
1488024174.48,4562,8.0,72854.8,-8.95,-25.97,-23.69,0,*66
1488024175.72,4563,8.0,72854.3,-8.95,-26.03,-24.57,0,*63
1488024176.94,4564,8.0,72854.8,-8.99,-25.23,-24.77,0,*6B
1488024178.2,4565,8.0,72852.3,-9.05,-24.67,-25.29,0,*65
1488024179.41,4566,8.0,72854.8,-9.05,-24.35,-26.45,0,*68
1488024180.63,4567,8.0,72854.0,-9.09,-24.57,-27.55,0,*61
1488024181.85,4568,8.0,72856.8,-9.11,-25.35,-29.07,0,*6B
1488024183.07,4569,8.0,72858.8,-9.13,-26.03,-29.67,0,*68
1488024184.36,4570,8.0,72862.3,-9.15,-26.81,-30.55,0,*65
1488024185.63,4571,8.0,72860.5,-9.17,-27.29,-31.95,0,*68
1488024186.84,4572,8.0,72862.0,-9.19,-28.53,-34.71,0,*68
1488024188.08,4573,8.0,72860.5,-9.21,-31.17,-38.35,0,*66
1488024189.29,4574,8.0,72864.3,-9.23,-34.07,-41.99,0,*6F
1488024190.49,4575,8.0,72858.3,-9.23,-37.75,-44.61,0,*6A
1488024191.73,4576,8.0,72858.3,-9.27,-41.49,-46.27,0,*63
1488024192.95,4577,8.0,72860.3,-9.31,-44.07,-46.01,0,*6E
1488024194.21,4578,8.0,72862.0,-9.33,-44.33,-43.95,0,*6C
1488024195.45,4579,8.0,72860.5,-9.35,-43.67,-41.29,0,*68
1488024196.69,4580,8.0,72862.5,-9.33,-43.01,-40.65,0,*61
1488024197.95,4581,8.0,72856.5,-9.33,-46.69,-42.63,0,*6F
1488024199.18,4582,8.0,72856.5,-9.35,-45.73,-40.47,0,*66
1488024200.38,4583,8.0,72854.5,-9.35,-45.53,-39.35,0,*6E
1488024201.62,4584,8.0,72854.3,-9.35,-44.07,-36.37,0,*64
1488024202.87,4585,8.0,72848.5,-9.37,-44.79,-35.77,0,*69
1488024204.1,4586,8.0,72848.3,-9.35,-44.61,-34.19,0,*68
1488024205.34,4587,8.0,72848.0,-9.35,-42.89,-31.51,0,*60
1488024206.62,4588,8.0,72844.0,-9.33,-41.23,-29.39,0,*6D
1488024207.86,4589,8.0,72850.0,-9.33,-39.09,-27.51,0,*6B
1488024209.13,4590,8.0,72848.5,-9.29,-36.49,-25.39,0,*6F
1488024210.4,4591,8.0,72850.0,-9.27,-34.65,-24.71,0,*61
1488024211.63,4592,8.0,72850.3,-9.23,-33.73,-25.23,0,*60
1488024212.87,4593,8.0,72850.8,-9.23,-33.15,-25.75,0,*62
1488024214.09,4594,8.0,72848.3,-9.23,-31.39,-25.35,0,*6D
1488024215.33,4595,8.0,72844.5,-9.23,-29.57,-24.41,0,*6F
1488024216.56,4596,8.0,72840.8,-9.19,-29.17,-24.51,0,*60
1488024217.81,4597,8.0,72842.3,-9.19,-28.85,-24.71,0,*69
1488024219.06,4598,8.0,72842.0,-9.17,-30.05,-26.07,0,*6A
1488024220.35,4599,8.0,72840.0,-9.17,-30.05,-25.97,0,*61
1488024221.61,4600,8.0,72840.0,-9.15,-28.43,-24.31,0,*66
1488024222.88,4601,8.0,72840.0,-9.17,-27.99,-23.69,0,*67
1488024224.17,4602,8.0,72846.8,-9.17,-28.63,-24.25,0,*61
1488024225.43,4603,8.0,72846.0,-9.15,-27.55,-22.73,0,*6D
1488024226.69,4604,8.0,72846.3,-9.15,-26.61,-21.87,0,*64
1488024227.92,4605,8.0,72842.3,-9.17,-27.13,-22.37,0,*6B
1488024229.15,4606,8.0,72848.3,-9.19,-26.55,-22.27,0,*64
1488024230.41,4607,8.0,72844.8,-9.21,-26.45,-23.03,0,*68
1488024231.68,4608,8.0,72842.5,-9.21,-24.35,-21.83,0,*68
1488024232.89,4609,8.0,72848.0,-9.27,-22.97,-21.09,0,*63
1488024234.13,4610,8.0,72844.0,-9.23,-23.09,-21.23,0,*61
1488024235.42,4611,8.0,72842.0,-9.29,-22.31,-20.19,0,*68
1488024236.68,4612,8.0,72842.5,-9.29,-21.73,-19.61,0,*6B
1488024237.91,4613,8.0,72840.3,-9.29,-20.29,-18.21,0,*61
1488024239.21,4614,8.0,72844.8,-9.29,-19.27,-17.45,0,*6F
1488024240.45,4615,8.0,72846.0,-9.27,-18.45,-17.11,0,*64
1488024241.67,4616,8.0,72838.3,-9.27,-18.65,-17.87,0,*6A
1488024242.88,4617,8.0,72838.0,-9.27,-19.37,-18.73,0,*69
1488024244.15,4618,8.0,72842.0,-9.27,-18.31,-17.97,0,*64
1488024245.36,4619,8.0,72830.0,-9.27,-18.41,-18.25,0,*64
1488024246.57,4620,8.0,72834.5,-9.23,-17.87,-18.49,0,*65
1488024247.8,4621,8.0,72832.0,-9.27,-18.01,-18.79,0,*62
1488024249.0,4622,8.0,72826.8,-9.23,-18.65,-19.37,0,*6C
1488024250.24,4623,8.0,72830.0,-9.21,-18.69,-19.13,0,*65
1488024251.44,4624,8.0,72832.0,-9.23,-18.79,-19.07,0,*64
1488024252.7,4625,8.0,72838.0,-9.27,-19.23,-18.93,0,*63
1488024253.92,4626,8.0,72838.8,-9.23,-18.59,-18.25,0,*65
1488024255.12,4627,8.0,72838.0,-9.23,-18.49,-18.25,0,*65
1488024256.33,4628,8.0,72838.5,-9.27,-18.45,-18.41,0,*60
1488024257.54,4629,8.0,72838.8,-9.23,-17.87,-18.11,0,*61
1488024258.8,4630,8.0,72840.8,-9.23,-17.41,-18.01,0,*62
1488024260.06,4631,8.0,72842.0,-9.21,-17.55,-18.45,0,*64
1488024261.31,4632,8.0,72838.8,-9.21,-17.49,-18.59,0,*67
1488024262.53,4633,8.0,72838.3,-9.19,-17.55,-19.03,0,*6E
1488024263.77,4634,8.0,72826.3,-9.21,-18.11,-19.75,0,*6C
1488024265.04,4635,8.0,72820.0,-9.19,-19.27,-20.99,0,*6A
1488024266.28,4636,8.0,72828.5,-9.21,-20.43,-22.27,0,*6D
1488024267.49,4637,8.0,72830.3,-9.19,-20.25,-21.77,0,*61
1488024268.71,4638,8.0,72828.3,-9.19,-20.43,-21.93,0,*64
1488024269.94,4639,8.0,72828.5,-9.19,-21.33,-22.63,0,*6F
1488024271.21,4640,8.0,72832.3,-9.19,-21.83,-22.77,0,*6F
1488024272.46,4641,8.0,72828.5,-9.17,-23.13,-23.69,0,*65
1488024273.74,4642,8.0,72836.8,-9.17,-23.29,-24.11,0,*67
1488024274.99,4643,8.0,72836.0,-9.19,-23.69,-24.67,0,*6D
1488024276.27,4644,8.0,72840.3,-9.21,-23.23,-23.99,0,*69
1488024277.51,4645,8.0,72840.5,-9.19,-23.43,-23.85,0,*68
1488024278.77,4646,8.0,72842.5,-9.19,-23.19,-22.73,0,*6C
1488024280.0,4647,8.0,72846.3,-9.21,-22.37,-22.37,0,*6B
1488024281.27,4648,8.0,72850.0,-9.19,-21.83,-23.03,0,*65
1488024282.53,4649,8.0,72854.5,-9.19,-23.03,-23.99,0,*6D
1488024283.77,4650,8.0,72848.3,-9.19,-23.19,-23.09,0,*67
1488024285.05,4651,8.0,72850.8,-9.15,-23.85,-23.65,0,*65
1488024286.32,4652,8.0,72852.0,-9.17,-24.47,-23.85,0,*63
1488024287.57,4653,8.0,72852.3,-9.17,-24.97,-23.53,0,*64
1488024288.85,4654,8.0,72856.0,-9.17,-25.97,-23.53,0,*62
1488024290.11,4655,8.0,72856.8,-9.17,-27.07,-23.65,0,*6D
1488024291.37,4656,8.0,72854.5,-9.17,-26.49,-22.73,0,*63
1488024292.61,4657,8.0,72854.0,-9.17,-26.65,-22.37,0,*6C
1488024293.87,4658,8.0,72850.5,-9.19,-26.71,-21.33,0,*6F
1488024295.11,4659,8.0,72856.0,-9.19,-26.17,-19.95,0,*69
1488024296.31,4660,8.0,72858.5,-9.19,-24.97,-19.47,0,*66
1488024297.57,4661,8.0,72858.0,-9.17,-23.65,-18.83,0,*6A
1488024298.8,4662,8.0,72860.3,-9.19,-22.57,-18.55,0,*6C
1488024300.09,4663,8.0,72858.0,-9.17,-21.27,-18.01,0,*66
1488024301.38,4664,8.0,72860.3,-9.17,-20.53,-18.01,0,*63
1488024302.67,4665,8.0,72860.0,-9.17,-19.27,-17.63,0,*60
1488024303.96,4666,8.0,72862.3,-9.17,-18.35,-17.11,0,*64
1488024305.22,4667,8.0,72862.8,-9.17,-17.73,-17.03,0,*6B
1488024306.5,4668,8.0,72860.8,-9.15,-18.55,-18.01,0,*60
1488024307.76,4669,8.0,72862.5,-9.15,-17.87,-18.01,0,*61
1488024309.02,4670,8.0,72856.0,-9.15,-18.79,-19.41,0,*62
1488024310.32,4671,8.0,72858.0,-9.15,-19.27,-20.19,0,*6E
1488024311.58,4672,8.0,72862.3,-9.17,-18.49,-19.61,0,*63
1488024312.84,4673,8.0,72864.8,-9.15,-18.55,-19.75,0,*68
1488024314.11,4674,8.0,72860.0,-9.17,-19.85,-21.57,0,*6A
1488024315.39,4675,8.0,72856.5,-9.17,-21.57,-22.73,0,*6A
1488024316.68,4676,8.0,72852.3,-9.17,-23.53,-23.53,0,*6C
1488024317.95,4677,8.0,72856.0,-9.19,-24.83,-23.19,0,*67
1488024319.23,4678,8.0,72852.8,-9.21,-25.29,-22.77,0,*6B
1488024320.46,4679,8.0,72850.8,-9.23,-26.39,-23.23,0,*6A
1488024321.7,4680,8.0,72850.5,-9.23,-26.77,-22.67,0,*67
1488024322.95,4681,8.0,72850.8,-9.27,-26.71,-21.97,0,*68
1488024324.22,4682,8.0,72848.3,-9.29,-26.13,-20.69,0,*61
1488024325.47,4683,8.0,72844.0,-9.29,-24.41,-19.07,0,*67
1488024326.74,4684,8.0,72842.8,-9.29,-22.31,-17.87,0,*67
1488024328.03,4685,8.0,72844.0,-9.29,-20.15,-17.11,0,*6D
1488024329.29,4686,8.0,72844.5,-9.29,-18.35,-16.89,0,*67
1488024330.55,4687,8.0,72844.3,-9.29,-18.35,-17.73,0,*62
1488024331.77,4688,8.0,72844.8,-9.27,-17.87,-17.83,0,*6A
1488024332.98,4689,8.0,72844.0,-9.23,-17.35,-17.69,0,*62
1488024334.21,4690,8.0,72840.5,-9.23,-16.83,-17.25,0,*6E
1488024335.42,4691,8.0,72850.0,-9.23,-17.35,-17.83,0,*6F
1488024336.63,4692,8.0,72848.0,-9.23,-17.73,-18.11,0,*6A
1488024337.88,4693,8.0,72852.5,-9.21,-16.93,-17.45,0,*68
1488024339.12,4694,8.0,72858.5,-9.19,-17.07,-17.49,0,*64
1488024340.33,4695,8.0,72854.0,-9.19,-18.11,-18.21,0,*6C
1488024341.56,4696,8.0,72850.8,-9.19,-19.81,-20.25,0,*68
1488024342.82,4697,8.0,72842.5,-9.21,-20.99,-22.11,0,*64
1488024344.06,4698,8.0,72836.8,-9.27,-20.59,-22.77,0,*61
1488024345.28,4699,8.0,72840.3,-9.31,-20.29,-23.69,0,*6E
1488024346.49,4700,8.0,72850.0,-9.31,-21.63,-27.13,0,*69
1488024347.73,4701,8.0,72852.5,-9.31,-24.61,-31.23,0,*6B
1488024349.03,4702,8.0,72852.8,-9.37,-28.05,-33.09,0,*6A
1488024350.24,4703,8.0,72856.0,-9.43,-30.67,-33.03,0,*6F
1488024351.48,4704,8.0,72850.8,-9.43,-34.13,-33.31,0,*6E
1488024352.7,4705,8.0,72852.8,-9.49,-36.01,-31.05,0,*61
1488024353.98,4706,8.0,72854.5,-9.45,-34.47,-25.97,0,*60
1488024355.24,4707,8.0,72850.3,-9.43,-31.57,-23.03,0,*68
1488024356.51,4708,8.0,72848.3,-9.41,-29.51,-21.73,0,*6F
1488024357.77,4709,8.0,72846.5,-9.37,-27.35,-20.25,0,*61
1488024359.01,4710,8.0,72844.5,-9.37,-24.57,-18.41,0,*67
1488024360.27,4711,8.0,72844.5,-9.31,-22.21,-17.03,0,*6E
1488024361.52,4712,8.0,72846.3,-9.29,-22.53,-17.87,0,*6D
1488024362.73,4713,8.0,72846.0,-9.27,-20.39,-16.55,0,*62
1488024363.96,4714,8.0,72848.0,-9.23,-19.65,-16.37,0,*66
1488024365.23,4715,8.0,72852.3,-9.21,-19.13,-16.13,0,*62
1488024366.47,4716,8.0,72848.3,-9.19,-18.45,-16.27,0,*6F
1488024367.7,4717,8.0,72852.5,-9.19,-17.55,-16.03,0,*66
1488024368.96,4718,8.0,72854.8,-9.15,-17.11,-15.99,0,*65
1488024370.19,4719,8.0,72854.8,-9.13,-16.93,-16.09,0,*63
1488024371.42,4720,8.0,72854.3,-9.13,-16.93,-16.31,0,*62
1488024372.66,4721,8.0,72852.5,-9.13,-16.83,-16.23,0,*61
1488024373.9,4722,8.0,72850.0,-9.11,-17.35,-16.83,0,*66
1488024375.16,4723,8.0,72852.5,-9.11,-18.49,-18.01,0,*67
1488024376.39,4724,8.06,72852.8,-9.09,-19.65,-18.83,0,*6C
1488024377.62,4725,8.0,72842.3,-9.13,-20.73,-19.81,0,*68
1488024378.86,4726,8.0,72842.3,-9.13,-19.99,-18.93,0,*67
1488024380.12,4727,8.0,72838.5,-9.17,-18.07,-17.17,0,*67
1488024381.37,4728,8.06,72840.5,-9.17,-17.63,-16.97,0,*6C
1488024382.66,4729,8.0,72844.8,-9.17,-17.63,-17.41,0,*67
1488024383.88,4730,8.0,72836.3,-9.19,-19.13,-19.17,0,*65
1488024385.12,4731,8.0,72834.8,-9.21,-19.13,-19.37,0,*6D
1488024386.35,4732,8.0,72840.0,-9.27,-18.65,-18.89,0,*6C
1488024387.62,4733,8.0,72838.0,-9.29,-18.93,-19.37,0,*6E
1488024388.88,4734,8.0,72840.8,-9.31,-20.53,-20.83,0,*62
1488024390.09,4735,8.0,72842.8,-9.35,-22.87,-22.93,0,*6F
1488024391.38,4736,8.0,72846.0,-9.41,-23.33,-23.33,0,*6A
1488024392.64,4737,8.0,72850.5,-9.43,-23.49,-23.85,0,*69
1488024393.87,4738,8.0,72848.3,-9.53,-23.89,-24.51,0,*65
1488024395.11,4739,8.06,72842.5,-9.57,-23.43,-24.11,0,*62
1488024396.36,4740,8.0,72836.0,-9.61,-21.83,-22.07,0,*66
1488024397.56,4741,8.0,72834.8,-9.63,-22.11,-21.47,0,*6A
1488024398.81,4742,8.06,72836.0,-9.63,-22.47,-21.53,0,*6F
1488024400.09,4743,8.06,72840.0,-9.65,-23.53,-22.17,0,*6F
1488024401.29,4744,8.06,72830.5,-9.67,-21.73,-19.91,0,*6C
1488024402.47,4745,8.0,72832.5,-9.67,-21.09,-19.07,0,*6F
1488024403.72,4746,8.06,72832.5,-9.67,-21.23,-19.27,0,*66
1488024404.94,4747,8.06,72836.0,-9.67,-21.23,-19.37,0,*66
1488024406.15,4748,8.0,72840.3,-9.71,-20.19,-19.07,0,*65
1488024407.36,4749,8.0,72842.8,-9.71,-20.19,-19.51,0,*67
1488024408.61,4750,8.0,72842.8,-9.71,-19.81,-19.57,0,*62
1488024409.86,4751,8.0,72848.3,-9.71,-19.65,-19.41,0,*6E
1488024411.05,4752,8.0,72852.0,-9.71,-18.99,-19.07,0,*6D
1488024412.3,4753,8.06,72854.8,-9.73,-19.17,-19.31,0,*6C
1488024413.5,4754,8.0,72856.3,-9.71,-19.37,-19.91,0,*61
1488024414.75,4755,8.0,72862.5,-9.71,-19.57,-20.35,0,*62
1488024416.0,4756,8.06,72860.8,-9.73,-19.75,-21.03,0,*67
1488024417.25,4757,8.0,72860.8,-9.73,-21.17,-23.33,0,*68
1488024418.49,4758,8.0,72858.3,-9.73,-21.43,-23.99,0,*66
1488024419.72,4759,8.0,72856.5,-9.73,-21.63,-25.13,0,*61
1488024420.91,4760,8.06,72862.8,-9.71,-23.89,-27.93,0,*65
1488024422.16,4761,8.0,72852.0,-9.73,-26.49,-29.01,0,*6A
1488024423.39,4762,8.06,72850.8,-9.73,-27.29,-27.67,0,*60
1488024424.61,4763,8.0,72844.8,-9.73,-27.77,-26.45,0,*6B
1488024425.84,4764,8.06,72848.3,-9.67,-28.91,-26.23,0,*6E
1488024427.09,4765,8.0,72848.0,-9.65,-28.91,-24.57,0,*6C
1488024428.28,4766,8.0,72846.8,-9.63,-29.95,-23.89,0,*68
1488024429.51,4767,8.06,72848.3,-9.59,-30.01,-22.53,0,*63
1488024430.7,4768,8.06,72846.8,-9.59,-27.29,-19.03,0,*6D
1488024431.93,4769,8.0,72838.3,-9.57,-24.57,-16.79,0,*6A
1488024433.18,4770,8.0,72836.0,-9.55,-23.03,-17.17,0,*6F
1488024434.37,4771,8.06,72836.5,-9.55,-20.73,-16.41,0,*68
1488024435.6,4772,8.06,72838.3,-9.51,-19.07,-16.09,0,*6A
1488024436.83,4773,8.0,72836.3,-9.51,-18.25,-16.17,0,*65
1488024438.07,4774,8.0,72834.8,-9.51,-17.25,-15.89,0,*69
1488024439.3,4775,8.0,72834.5,-9.51,-16.83,-16.09,0,*6E
1488024440.5,4776,8.06,72838.3,-9.51,-15.95,-15.49,0,*6E
1488024441.71,4777,8.06,72838.5,-9.51,-15.63,-15.29,0,*60
1488024442.95,4778,8.06,72838.8,-9.45,-15.29,-14.89,0,*6F
1488024444.16,4779,8.0,72838.3,-9.43,-14.23,-14.11,0,*62
1488024445.44,4780,8.0,72836.0,-9.41,-13.79,-13.79,0,*67
1488024446.73,4781,8.0,72832.5,-9.41,-13.37,-13.33,0,*62
1488024448.0,4782,8.0,72832.0,-9.37,-12.89,-12.75,0,*67
1488024449.28,4783,8.0,72834.8,-9.33,-12.71,-12.65,0,*64
1488024450.56,4784,8.0,72830.3,-9.29,-12.65,-12.65,0,*6D
1488024451.82,4785,8.06,72832.0,-9.27,-13.29,-13.29,0,*62
1488024453.06,4786,8.06,72832.0,-9.19,-13.01,-12.89,0,*6D
1488024454.3,4787,8.0,72828.8,-9.17,-12.97,-12.93,0,*67
1488024455.58,4788,8.06,72834.8,-9.15,-12.79,-12.65,0,*63
1488024456.84,4789,8.06,72832.3,-9.11,-12.89,-12.61,0,*6D
1488024458.1,4790,8.0,72828.0,-9.07,-12.75,-12.43,0,*61
1488024459.32,4791,8.0,72830.0,-9.03,-13.55,-13.47,0,*62
1488024460.58,4792,8.0,72826.5,-9.03,-13.51,-13.37,0,*62
1488024461.84,4793,8.06,72824.0,-8.99,-14.51,-14.19,0,*6D
1488024463.1,4794,8.0,72822.5,-8.97,-13.29,-13.01,0,*62
1488024464.31,4795,8.0,72820.0,-8.97,-13.19,-12.93,0,*6A
1488024465.54,4796,8.06,72826.8,-8.93,-12.71,-12.29,0,*63
1488024466.77,4797,8.06,72822.8,-8.91,-13.19,-13.11,0,*65
1488024468.03,4798,8.06,72828.0,-8.91,-13.51,-13.37,0,*62
1488024469.31,4799,8.0,72826.0,-8.87,-13.29,-13.33,0,*6F
1488024470.59,4800,8.0,72824.0,-8.87,-13.29,-13.33,0,*60
1488024471.79,4801,8.06,72832.3,-8.85,-13.15,-13.23,0,*6D
1488024473.0,4802,8.06,72832.3,-8.83,-13.43,-13.55,0,*6A
1488024474.23,4803,8.0,72832.0,-8.81,-13.47,-13.55,0,*6D
1488024475.45,4804,8.06,72836.3,-8.83,-13.11,-13.29,0,*60
1488024476.72,4805,8.06,72838.5,-8.77,-13.19,-13.29,0,*62
1488024477.97,4806,8.06,72840.0,-8.75,-13.37,-13.61,0,*63
1488024479.21,4807,8.06,72844.0,-8.75,-14.37,-14.51,0,*61
1488024480.44,4808,8.06,72840.5,-8.75,-14.65,-14.79,0,*63
1488024481.67,4809,8.0,72840.0,-8.77,-15.07,-15.15,0,*6E
1488024482.88,4810,8.06,72844.8,-8.75,-14.65,-14.89,0,*65
1488024484.13,4811,8.06,72842.3,-8.77,-14.93,-15.11,0,*6F
1488024485.39,4812,8.06,72838.8,-8.77,-16.31,-16.83,0,*6E
1488024486.65,4813,8.06,72840.5,-8.81,-17.07,-17.49,0,*65
1488024487.86,4814,8.06,72836.3,-8.83,-16.75,-17.35,0,*6F
1488024489.09,4815,8.06,72844.3,-8.85,-17.11,-17.69,0,*62
1488024490.35,4816,8.06,72844.0,-8.87,-18.31,-19.13,0,*6D
1488024491.64,4817,8.06,72850.0,-8.87,-18.01,-18.93,0,*66
1488024492.89,4818,8.06,72854.8,-8.91,-19.17,-20.35,0,*6F
1488024494.12,4819,8.06,72852.8,-8.91,-20.39,-20.93,0,*64
1488024495.39,4820,8.06,72844.8,-8.95,-22.57,-22.17,0,*6E
1488024496.64,4821,8.06,72826.8,-8.99,-24.57,-23.65,0,*61
1488024497.87,4822,8.06,72824.5,-9.05,-24.35,-23.53,0,*67
1488024499.12,4823,8.06,72824.5,-9.09,-21.53,-20.29,0,*61
1488024500.35,4824,8.0,72832.5,-9.09,-20.39,-18.89,0,*6A
1488024501.56,4825,8.06,72836.3,-9.13,-19.71,-18.65,0,*64
1488024502.79,4826,8.06,72846.0,-9.13,-20.25,-19.23,0,*6F
1488024504.05,4827,8.06,72834.5,-9.17,-22.07,-21.23,0,*63
1488024505.28,4828,8.06,72816.8,-9.21,-22.27,-21.63,0,*6F
1488024506.55,4829,8.0,72810.0,-9.27,-19.57,-18.93,0,*62
1488024507.79,4830,8.06,72814.5,-9.27,-19.41,-18.65,0,*64
1488024509.04,4831,8.06,72818.8,-9.29,-20.19,-18.99,0,*6F
1488024510.29,4832,8.0,72820.0,-9.33,-20.19,-18.83,0,*6C
1488024511.55,4833,8.06,72838.0,-9.33,-18.73,-17.59,0,*62
1488024512.78,4834,8.06,72844.8,-9.35,-18.35,-17.49,0,*60
1488024514.02,4835,8.06,72842.0,-9.35,-18.49,-17.93,0,*6D
1488024515.28,4836,8.0,72840.8,-9.37,-18.01,-17.73,0,*6E
1488024516.52,4837,8.06,72842.3,-9.39,-18.17,-17.97,0,*6C
1488024517.77,4838,8.06,72842.3,-9.39,-17.55,-17.25,0,*63
1488024519.03,4839,8.06,72846.3,-9.39,-17.25,-17.11,0,*62
1488024520.24,4840,8.06,72846.3,-9.39,-16.97,-16.97,0,*6B
1488024521.53,4841,8.0,72848.0,-9.41,-16.27,-16.13,0,*62